KD8ILV Weather Reports


time (UTC)temp
C
wind
direction
speed
KPH
gust
KPH
rain 1hr
cm
rain 24hr
cm
rain mn
cm
humidity
%
barometer
mb
20260503185553 17 200 1.6 4.8 0.00 0.00 0.00 40 1018.0
20260503185056 17 167 0.0 4.8 0.00 0.00 0.00 38 1018.1
20260503184559 17 66 1.6 4.8 0.00 0.00 0.00 39 1018.2
20260503184056 17 159 1.6 4.8 0.00 0.00 0.00 40 1018.2
20260503183552 16 82 0.0 4.8 0.00 0.00 0.00 43 1018.4
20260503183102 16 0 0.0 6.4 0.00 0.00 0.00 44 1018.5
20260503182552 16 226 3.2 6.4 0.00 0.00 0.00 42 1018.6
20260503182053 16 194 1.6 6.4 0.00 0.00 0.00 41 1018.7
20260503181557 16 109 1.6 4.8 0.00 0.00 0.00 40 1018.7
20260503181053 16 218 0.0 11.3 0.00 0.00 0.00 40 1018.7
20260503180554 16 101 1.6 11.3 0.00 0.00 0.00 42 1018.8
20260503180105 17 155 1.6 11.3 0.00 0.00 0.00 37 1018.8
20260503175553 17 300 1.6 9.7 0.00 0.00 0.00 34 1018.8
20260503175053 17 10 1.6 9.7 0.00 0.00 0.00 42 1018.9
20260503174559 17 194 1.6 9.7 0.00 0.00 0.00 38 1019.0
20260503174053 16 155 1.6 9.7 0.00 0.00 0.00 37 1019.2
20260503173553 16 121 3.2 9.7 0.00 0.00 0.00 37 1019.2
20260503173057 16 196 1.6 14.5 0.00 0.00 0.00 41 1019.3
20260503172553 16 206 4.8 14.5 0.00 0.00 0.00 33 1019.2
20260503172053 17 188 1.6 9.7 0.00 0.00 0.00 36 1019.3
20260503171600 16 140 1.6 9.7 0.00 0.00 0.00 39 1019.4
20260503171053 17 354 1.6 9.7 0.00 0.00 0.00 36 1019.7
20260503170553 17 212 1.6 11.3 0.00 0.00 0.00 36 1019.9
20260503150554 13 231 1.6 6.4 0.00 0.00 0.00 45 1021.1
20260503140149 11 164 1.6 3.2 0.00 0.00 0.00 58 1021.0
20260503131052 10 0 1.6 6.4 0.00 0.00 0.00 58 1021.0
20260503130556 10 20 0.0 3.2 0.00 0.00 0.00 60 1021.0
20260503110552 2 0 0.0 0.0 0.00 0.00 0.00 82 1020.4
20260503110108 2 0 0.0 0.0 0.00 0.00 0.00 82 1020.4
20260503081556 1 0 0.0 0.0 0.00 0.00 0.00 86 1019.9
20260503081055 1 0 0.0 0.0 0.00 0.00 0.00 86 1019.9
20260503080556 1 0 0.0 0.0 0.00 0.00 0.00 86 1019.9
20260503072556 1 0 0.0 0.0 0.00 0.00 0.00 85 1019.8
20260503072051 1 0 0.0 0.0 0.00 0.00 0.00 85 1019.8
20260503071614 1 0 0.0 0.0 0.00 0.00 0.00 85 1019.8
20260503071053 1 0 0.0 0.0 0.00 0.00 0.00 85 1019.8
20260503070556 1 0 0.0 0.0 0.00 0.00 0.00 85 1019.8
20260503060118 1 0 0.0 0.0 0.00 0.00 0.00 83 1020.2
20260503055052 1 0 0.0 0.0 0.00 0.00 0.00 83 1020.3
20260503054601 1 0 0.0 0.0 0.00 0.00 0.00 82 1020.1
20260503054053 1 0 0.0 0.0 0.00 0.00 0.00 82 1020.3
20260503053553 2 0 0.0 0.0 0.00 0.00 0.00 82 1020.3
20260503053055 2 0 0.0 0.0 0.00 0.00 0.00 82 1020.2
20260503052553 2 0 0.0 0.0 0.00 0.00 0.00 82 1020.2
20260503052053 2 0 0.0 0.0 0.00 0.00 0.00 82 1020.3
20260503051556 2 0 0.0 0.0 0.00 0.00 0.00 82 1020.2
20260503051059 2 0 0.0 0.0 0.00 0.00 0.00 82 1020.2
20260503050552 2 0 0.0 0.0 0.00 0.00 0.00 82 1020.1
20260503050056 2 0 0.0 0.0 0.00 0.00 0.00 82 1020.1
20260503045555 2 0 0.0 0.0 0.00 0.00 0.00 82 1020.2
20260503045054 2 0 0.0 0.0 0.00 0.00 0.00 82 1020.2
20260503044552 2 0 0.0 0.0 0.00 0.00 0.00 82 1020.2
20260503044055 2 0 0.0 0.0 0.00 0.00 0.00 82 1020.2
20260503043552 2 0 0.0 0.0 0.00 0.00 0.00 82 1020.2
20260503043053 2 0 0.0 0.0 0.00 0.00 0.00 83 1020.1
20260503042555 2 0 0.0 0.0 0.00 0.00 0.00 83 1020.2
20260503042055 2 0 0.0 0.0 0.00 0.00 0.00 82 1020.2
20260503041554 2 0 0.0 0.0 0.00 0.00 0.00 82 1020.3
20260503041055 2 0 0.0 0.0 0.00 0.00 0.00 82 1020.2
20260503040554 2 0 0.0 0.0 0.00 0.00 0.00 81 1020.3
20260503040113 2 0 0.0 0.0 0.00 0.00 0.00 81 1020.3
20260503035552 2 0 0.0 0.0 0.00 0.00 0.00 81 1020.2
20260503035052 2 0 0.0 0.0 0.00 0.00 0.00 80 1020.2
20260503034553 2 0 0.0 0.0 0.00 0.00 0.00 80 1020.2
20260503034055 2 0 0.0 0.0 0.00 0.00 0.00 80 1020.2
20260503033552 2 0 0.0 0.0 0.00 0.00 0.00 80 1020.2
20260503033054 2 0 0.0 0.0 0.00 0.00 0.00 80 1020.3
20260503032555 2 0 0.0 0.0 0.00 0.00 0.00 80 1020.2
20260503032052 3 0 0.0 0.0 0.00 0.00 0.00 79 1020.3
20260503031604 3 0 0.0 0.0 0.00 0.00 0.00 78 1020.3
20260503031055 3 0 0.0 0.0 0.00 0.00 0.00 78 1020.4
20260503030556 3 0 0.0 0.0 0.00 0.00 0.00 76 1020.3
20260503030056 3 0 0.0 0.0 0.00 0.00 0.00 76 1020.3
20260503025556 3 0 0.0 0.0 0.00 0.00 0.00 76 1020.3
20260503025051 3 0 0.0 0.0 0.00 0.00 0.00 75 1020.2
20260503024554 3 0 0.0 0.0 0.00 0.00 0.00 75 1020.2
20260503024057 3 0 0.0 0.0 0.00 0.00 0.00 76 1020.2
20260503023556 3 0 0.0 0.0 0.00 0.00 0.00 74 1020.3
20260503023056 3 0 0.0 0.0 0.00 0.00 0.00 74 1020.3
20260503022554 3 0 0.0 0.0 0.00 0.00 0.00 73 1020.2
20260503022054 4 0 0.0 0.0 0.00 0.00 0.00 72 1020.2
20260503021601 4 0 0.0 0.0 0.00 0.00 0.00 72 1020.1
20260503021052 4 0 0.0 0.0 0.00 0.00 0.00 71 1020.0
20260503020552 4 0 0.0 0.0 0.00 0.00 0.00 71 1019.9
20260503020100 5 0 0.0 0.0 0.00 0.00 0.00 70 1019.9
20260503015551 5 0 0.0 0.0 0.00 0.00 0.00 70 1019.8
20260503015131 5 0 0.0 0.0 0.00 0.00 0.00 68 1019.8
20260503014609 5 0 0.0 0.0 0.00 0.00 0.00 68 1019.8
20260503014051 5 0 0.0 0.0 0.00 0.00 0.00 66 1019.7
20260503013555 5 0 0.0 0.0 0.00 0.00 0.00 68 1019.7
20260503013054 5 0 0.0 0.0 0.00 0.00 0.00 67 1019.7
20260503012552 5 0 0.0 0.0 0.00 0.00 0.00 65 1019.5
20260503012058 6 0 0.0 0.0 0.00 0.00 0.00 64 1019.4
20260503011611 6 0 0.0 0.0 0.00 0.00 0.00 64 1019.4
20260503011054 6 0 0.0 0.0 0.00 0.00 0.00 63 1019.3
20260503010555 6 0 0.0 0.0 0.00 0.00 0.00 62 1019.3
20260503010054 6 0 0.0 0.0 0.00 0.00 0.00 60 1019.3
20260503005555 6 0 0.0 0.0 0.00 0.00 0.00 59 1019.3
20260503005055 7 0 0.0 1.6 0.00 0.00 0.00 61 1019.3
20260503004556 7 0 0.0 1.6 0.00 0.00 0.00 61 1019.2
20260503004054 7 0 0.0 1.6 0.00 0.00 0.00 58 1019.2
20260503003551 7 0 0.0 1.6 0.00 0.00 0.00 57 1019.1
20260503003055 7 0 0.0 3.2 0.00 0.00 0.00 60 1019.2
20260503002555 7 210 0.0 4.8 0.00 0.00 0.00 58 1019.1
20260503002055 8 214 0.0 4.8 0.00 0.00 0.00 59 1019.0
20260503001620 8 0 0.0 1.6 0.00 0.00 0.00 56 1018.9
20260503001054 8 0 0.0 1.6 0.00 0.00 0.00 56 1018.9
20260503000555 8 210 0.0 6.4 0.00 0.00 0.00 55 1018.9
20260503000121 9 0 0.0 6.4 0.00 0.00 0.00 55 1018.8
20260502235554 9 0 0.0 4.8 0.00 0.00 0.00 53 1018.6
20260502235055 9 0 0.0 4.8 0.00 0.00 0.00 51 1018.7
20260502234605 10 0 0.0 3.2 0.00 0.00 0.00 56 1018.7
20260502234052 10 131 0.0 3.2 0.00 0.00 0.00 53 1018.6
20260502233552 10 0 0.0 3.2 0.00 0.00 0.00 53 1018.6
20260502233054 10 151 0.0 4.8 0.00 0.00 0.00 54 1018.5
20260502232554 10 0 0.0 4.8 0.00 0.00 0.00 52 1018.6
20260502232054 10 219 0.0 3.2 0.00 0.00 0.00 51 1018.5
20260502231552 10 0 0.0 3.2 0.00 0.00 0.00 50 1018.6
20260502231052 10 171 0.0 3.2 0.00 0.00 0.00 50 1018.5
20260502230555 10 0 0.0 3.2 0.00 0.00 0.00 47 1018.5
20260502230053 10 207 0.0 4.8 0.00 0.00 0.00 52 1018.5
20260502225552 10 0 0.0 4.8 0.00 0.00 0.00 52 1018.5
20260502225054 10 129 0.0 9.7 0.00 0.00 0.00 50 1018.4
20260502224558 10 129 0.0 9.7 0.00 0.00 0.00 50 1018.4
20260502224103 10 161 0.0 0.0 0.00 0.00 0.00 49 1018.4
20260502223552 10 0 0.0 0.0 0.00 0.00 0.00 51 1018.4
20260502223055 10 0 0.0 0.0 0.00 0.00 0.00 50 1018.3
20260502222551 11 0 0.0 3.2 0.00 0.00 0.00 47 1018.2
20260502222052 11 0 0.0 4.8 0.00 0.00 0.00 51 1018.3
20260502221552 11 0 0.0 4.8 0.00 0.00 0.00 46 1018.3
20260502221054 11 123 0.0 4.8 0.00 0.00 0.00 48 1018.2
20260502220555 11 0 1.6 6.4 0.00 0.00 0.00 44 1018.3
20260502220054 11 30 0.0 6.4 0.00 0.00 0.00 48 1018.3
20260502215555 11 152 0.0 4.8 0.00 0.00 0.00 46 1018.3
20260502215053 11 0 0.0 4.8 0.00 0.00 0.00 50 1018.2
20260502214556 11 0 0.0 4.8 0.00 0.00 0.00 49 1018.2
20260502214054 11 85 1.6 8.0 0.00 0.00 0.00 47 1018.1
20260502213551 11 192 0.0 8.0 0.00 0.00 0.00 43 1018.0
20260502213052 12 153 0.0 6.4 0.00 0.00 0.00 41 1018.1
20260502212554 12 202 0.0 12.9 0.00 0.00 0.00 43 1018.1
20260502212054 12 210 1.6 12.9 0.00 0.00 0.00 43 1018.0
20260502211555 12 269 1.6 6.4 0.00 0.00 0.00 46 1018.0
20260502211054 12 0 0.0 1.6 0.00 0.00 0.00 41 1018.1
20260502210551 13 198 0.0 3.2 0.00 0.00 0.00 39 1018.0
20260502210106 13 78 0.0 3.2 0.00 0.00 0.00 41 1018.0
20260502205554 13 53 0.0 4.8 0.00 0.00 0.00 42 1018.0
20260502205052 13 205 0.0 6.4 0.00 0.00 0.00 41 1017.9
20260502204558 13 193 1.6 6.4 0.00 0.00 0.00 38 1018.0
20260502204054 14 238 0.0 6.4 0.00 0.00 0.00 37 1018.0
20260502203555 14 163 1.6 4.8 0.00 0.00 0.00 42 1017.9
20260502203056 14 183 0.0 4.8 0.00 0.00 0.00 41 1017.9
20260502202554 13 205 0.0 4.8 0.00 0.00 0.00 39 1018.0
20260502202054 13 77 1.6 12.9 0.00 0.00 0.00 40 1018.1
20260502201556 13 11 1.6 12.9 0.00 0.00 0.00 43 1018.2
20260502201051 13 205 1.6 12.9 0.00 0.00 0.00 42 1018.2
20260502200554 13 158 0.0 6.4 0.00 0.00 0.00 45 1018.2
20260502200056 13 358 1.6 6.4 0.00 0.00 0.00 41 1018.2
20260502195551 13 200 1.6 4.8 0.00 0.00 0.00 44 1018.3
20260502195054 12 217 0.0 6.4 0.00 0.00 0.00 42 1018.2
20260502194556 12 200 1.6 8.0 0.00 0.00 0.00 40 1018.2
20260502194055 12 153 1.6 8.0 0.00 0.00 0.00 43 1018.3
20260502193552 12 255 1.6 4.8 0.00 0.00 0.00 40 1018.3
20260502193059 12 169 1.6 4.8 0.00 0.00 0.00 41 1018.2
20260502192552 12 257 1.6 3.2 0.00 0.00 0.00 41 1018.3
20260502192054 12 131 1.6 6.4 0.00 0.00 0.00 44 1018.3
20260502191601 12 169 1.6 12.9 0.00 0.00 0.00 43 1018.3
20260502191054 12 226 1.6 12.9 0.00 0.00 0.00 42 1018.4
20260502190554 12 200 0.0 4.8 0.00 0.00 0.00 45 1018.3
20260502190109 12 0 0.0 6.4 0.00 0.00 0.00 41 1018.4